Find Shiyan 23 Weixing

NORAD ID: 59728 Int'l Des: 2024-089 Owner: CNSA Country: CN operational
LEOCIRCULARRETROGRADESSO

Current View

Loading 3D Globe...

About Shiyan 23 Weixing

Description loading...

Upcoming Passes

Passes for default location (London). Set your location on the main map for personalized predictions.

Altitude History

Loading altitude history...

Two-Line Element Set

1 59728U 24089A 26150.70479284 .00000814 00000-0 96839-4 0 9991
2 59728 97.7765 152.8457 0001952 241.6639 118.4380 14.87009694111246
Epoch: May 30, 2026 • Age: 20 hours

Current Status

Altitude 618.4 km
Velocity 7.55 km/s
Sub-Earth Point 57.85°N, 63.79°E
Launch Date May 11, 2024
Age 2 years
Type other

Technical Details

Classification Payload
Mass 1000.00 kg
Dry Mass 1000.00 kg
Total Mass 1000.00 kg
Length 1.50 m
Diameter 1.50 m
Span 5.00 m
Shape Box + 2 Pan
Manufacturer CAST
Bus Type SY23
Phase Status In Orbit
Owner/State CNSA/CN

Most Searched